Simultaneous Nadir Overpasses (SNOs) Predictions

Prediction of SNOs between NOAA-20 and AQUA Satellite Orbit:

Table of predicted SNOs for the next 14.0 days since TLE Epoch: 12/15/2017
Index Date (NOAA-20) Time (NOAA-20) Lat,Lon (NOAA-20) SZA (NOAA-20 ) Date (AQUA) Time (AQUA) Lat,Lon (AQUA) SZA (AQUA ) Distance(km) Time Diff (sec)
1 12/17/2017 00:15:23 -56.96,-148.98 42.36 12/17/2017 00:16:36 -56.71,-147.61 42.96 88.39 73
2 12/17/2017 01:00:05 76.03, 44.07 119.71 12/17/2017 01:00:13 76.04, 44.17 119.68 2.92 8
3 12/17/2017 01:50:26 -77.05,-144.77 61.49 12/17/2017 01:49:19 -77.06,-144.71 61.44 1.58 67
4 12/19/2017 19:44:48 -75.96, -57.33 60.07 12/19/2017 19:45:06 -75.97, -57.26 60.10 1.93 18
5 12/19/2017 20:35:05 76.96, 113.69 118.77 12/19/2017 20:34:11 76.96, 113.73 118.81 1.14 54
6 12/22/2017 14:29:26 75.85,-158.83 120.14 12/22/2017 14:29:57 75.86,-158.80 120.11 0.92 31
7 12/22/2017 15:19:45 -76.98, 12.61 61.18 12/22/2017 15:19:01 -76.98, 12.57 61.13 0.81 44
8 12/25/2017 09:14:05 -75.97, 100.39 59.97 12/25/2017 09:14:46 -75.97, 100.33 59.99 1.92 41
9 12/25/2017 10:04:23 76.93, -88.76 118.92 12/25/2017 10:03:52 76.92, -88.85 118.97 2.50 31
10 12/28/2017 03:58:52 75.50, -2.30 120.55 12/28/2017 03:59:45 75.50, -2.26 120.49 1.24 53




NCC Satellite Simultaneous Nadir Overpasses (SNOs) Prediction Service
